When you browse on this site, cookies collect data to enhance your experience and personalize the content and advertising you see.
Visit our Privacy Policy to learn more. By continuing to use the site, you agree to this use of cookies and data.
  • Em Portugal
  • Lista de países
  • Para 7 dias
  • Temperatura da água
  • Mapas de satélite
  • Mapa do tempo
  • Widgets de tempo
  • user-avatar
    Iniciar Sessão

    Previsão horária em Wieruszew

    Hoje, 24 Abril, Quarta-feira

    Tempo Temperatura Precipitação Vento Pressão Humidade
    00:00 +11°C° 0 mm 7 m/s 752 mmHg 56%
    01:00 +10°C° 0 mm 6 m/s 752 mmHg 58%
    02:00 +10°C° 0 mm 6 m/s 752 mmHg 60%
    03:00 +9°C° 0 mm 6 m/s 751 mmHg 62%
    04:00 +9°C° 0 mm 6 m/s 751 mmHg 64%
    05:00 +9°C° 0 mm 6 m/s 751 mmHg 65%
    06:00 +10°C° 0 mm 7 m/s 751 mmHg 67%
    07:00 +11°C° 0 mm 7 m/s 751 mmHg 68%
    08:00 +12°C° 0 mm 7 m/s 751 mmHg 65%
    09:00 +15°C° 0 mm 7 m/s 751 mmHg 61%
    10:00 +17°C° 0 mm 7 m/s 751 mmHg 58%
    11:00 +17°C° 0 mm 7 m/s 751 mmHg 57%
    12:00 +19°C° 0 mm 6 m/s 751 mmHg 57%
    13:00 +20°C° 0 mm 6 m/s 751 mmHg 57%
    14:00 +19°C° 0 mm 5 m/s 751 mmHg 59%
    15:00 +19°C° 0 mm 5 m/s 751 mmHg 61%
    16:00 +19°C° 0 mm 5 m/s 751 mmHg 63%
    17:00 +19°C° 0 mm 5 m/s 750 mmHg 63%
    18:00 +17°C° 0 mm 5 m/s 750 mmHg 64%
    19:00 +18°C° 0 mm 4 m/s 750 mmHg 64%
    20:00 +16°C° 0 mm 5 m/s 751 mmHg 67%
    21:00 +15°C° 0 mm 5 m/s 751 mmHg 69%
    22:00 +15°C° 0 mm 5 m/s 751 mmHg 72%
    23:00 +14°C° 0 mm 5 m/s 751 mmHg 74%

    Amanhã, 25 Abril, Quinta-feira

    Tempo Temperatura Precipitação Vento Pressão Humidade
    00:00 +13°C° 0 mm 5 m/s 751 mmHg 76%
    01:00 +13°C° 0 mm 4 m/s 751 mmHg 78%
    02:00 +13°C° 0 mm 4 m/s 751 mmHg 78%
    03:00 +12°C° 0 mm 5 m/s 751 mmHg 78%
    04:00 +12°C° 0 mm 5 m/s 750 mmHg 78%
    05:00 +13°C° 0 mm 5 m/s 751 mmHg 76%
    06:00 +14°C° 0 mm 5 m/s 751 mmHg 75%
    07:00 +16°C° 0 mm 5 m/s 751 mmHg 73%
    08:00 +17°C° 0 mm 5 m/s 751 mmHg 68%
    09:00 +20°C° 0 mm 5 m/s 751 mmHg 63%
    10:00 +21°C° 0 mm 6 m/s 751 mmHg 59%
    11:00 +21°C° 0 mm 5 m/s 751 mmHg 57%
    12:00 +22°C° 0 mm 5 m/s 751 mmHg 56%
    13:00 +22°C° 0 mm 5 m/s 751 mmHg 55%
    14:00 +22°C° 0 mm 4 m/s 750 mmHg 55%
    15:00 +22°C° 0 mm 3 m/s 750 mmHg 56%
    16:00 +22°C° 0 mm 3 m/s 750 mmHg 56%
    17:00 +20°C° 0 mm 2 m/s 750 mmHg 61%
    18:00 +20°C° 0 mm 1 m/s 750 mmHg 66%
    19:00 +19°C° 0 mm 1 m/s 750 mmHg 71%
    20:00 +18°C° 0 mm 1 m/s 750 mmHg 74%
    21:00 +16°C° 0 mm 1 m/s 750 mmHg 78%
    22:00 +15°C° 0 mm 2 m/s 750 mmHg 81%
    23:00 +15°C° 0 mm 2 m/s 750 mmHg 83%

    Depois de amanhã, 26 Abril, Sexta-feira

    Tempo Temperatura Precipitação Vento Pressão Humidade
    00:00 +15°C° 0 mm 2 m/s 750 mmHg 86%
    01:00 +14°C° 0 mm 2 m/s 750 mmHg 88%
    02:00 +14°C° 0 mm 2 m/s 750 mmHg 89%
    03:00 +14°C° 0 mm 2 m/s 750 mmHg 89%
    04:00 +13°C° 0 mm 2 m/s 750 mmHg 89%
    05:00 +15°C° 0 mm 2 m/s 749 mmHg 83%
    06:00 +16°C° 0 mm 2 m/s 749 mmHg 78%
    07:00 +18°C° 0 mm 3 m/s 749 mmHg 72%
    08:00 +19°C° 0 mm 2 m/s 749 mmHg 66%
    09:00 +21°C° 0 mm 2 m/s 749 mmHg 60%
    10:00 +23°C° 0 mm 2 m/s 749 mmHg 55%
    11:00 +24°C° 0 mm 2 m/s 748 mmHg 52%
    12:00 +25°C° 0 mm 3 m/s 748 mmHg 49%
    13:00 +26°C° 0 mm 3 m/s 748 mmHg 46%
    14:00 +25°C° 0 mm 3 m/s 747 mmHg 47%
    15:00 +25°C° 0 mm 2 m/s 747 mmHg 47%
    16:00 +25°C° 0 mm 2 m/s 747 mmHg 47%
    17:00 +23°C° 0 mm 1 m/s 747 mmHg 52%
    18:00 +22°C° 0 mm 1 m/s 747 mmHg 57%
    19:00 +20°C° 0 mm 1 m/s 747 mmHg 62%
    20:00 +20°C° 0 mm 1 m/s 747 mmHg 64%
    21:00 +19°C° 0 mm 1 m/s 747 mmHg 66%
    22:00 +19°C° 0 mm 1 m/s 747 mmHg 68%
    23:00 +18°C° 0 mm 1 m/s 747 mmHg 71%

    27 Abril, Sábado

    Tempo Temperatura Precipitação Vento Pressão Humidade
    00:00 +18°C° 0 mm 1 m/s 746 mmHg 74%
    01:00 +16°C° 0 mm 1 m/s 746 mmHg 76%
    02:00 +16°C° 0 mm 1 m/s 746 mmHg 79%
    03:00 +15°C° 0 mm 1 m/s 746 mmHg 81%
    04:00 +15°C° 0 mm 1 m/s 746 mmHg 83%
    05:00 +16°C° 0 mm 2 m/s 746 mmHg 82%
    06:00 +16°C° 0 mm 2 m/s 746 mmHg 81%
    07:00 +17°C° 0 mm 2 m/s 746 mmHg 79%
    08:00 +18°C° 0 mm 3 m/s 746 mmHg 77%
    09:00 +19°C° 0 mm 4 m/s 746 mmHg 75%
    10:00 +20°C° 0 mm 5 m/s 746 mmHg 72%
    11:00 +19°C° 0 mm 5 m/s 746 mmHg 74%
    12:00 +17°C° 0 mm 5 m/s 746 mmHg 76%
    13:00 +17°C° 0 mm 6 m/s 746 mmHg 77%
    14:00 +16°C° 0 mm 6 m/s 747 mmHg 77%
    15:00 +16°C° 0 mm 6 m/s 747 mmHg 76%
    16:00 +16°C° 0 mm 6 m/s 747 mmHg 76%
    17:00 +14°C° 0 mm 6 m/s 748 mmHg 76%
    18:00 +13°C° 0 mm 6 m/s 748 mmHg 77%
    19:00 +11°C° 0 mm 6 m/s 749 mmHg 77%
    20:00 +10°C° 0 mm 6 m/s 749 mmHg 78%
    21:00 +9°C° 0 mm 5 m/s 750 mmHg 80%
    22:00 +8°C° 0 mm 5 m/s 750 mmHg 81%
    23:00 +8°C° 0 mm 5 m/s 750 mmHg 80%

    28 Abril, Domingo

    Tempo Temperatura Precipitação Vento Pressão Humidade
    00:00 +8°C° 0 mm 5 m/s 751 mmHg 79%
    01:00 +9°C° 0 mm 5 m/s 751 mmHg 78%
    02:00 +8°C° 0 mm 5 m/s 751 mmHg 81%
    03:00 +8°C° 0 mm 5 m/s 751 mmHg 83%
    04:00 +7°C° 0 mm 5 m/s 752 mmHg 86%
    05:00 +8°C° 0 mm 5 m/s 752 mmHg 85%
    06:00 +8°C° 0 mm 5 m/s 752 mmHg 83%
    07:00 +9°C° 0 mm 5 m/s 752 mmHg 82%
    08:00 +11°C° 0 mm 4 m/s 753 mmHg 78%
    09:00 +11°C° 0 mm 4 m/s 753 mmHg 75%
    10:00 +12°C° 0 mm 4 m/s 753 mmHg 72%
    11:00 +13°C° 0 mm 4 m/s 753 mmHg 69%
    12:00 +14°C° 0 mm 3 m/s 754 mmHg 65%
    13:00 +16°C° 0 mm 3 m/s 754 mmHg 62%
    14:00 +16°C° 0 mm 3 m/s 754 mmHg 62%
    15:00 +15°C° 0 mm 4 m/s 754 mmHg 62%
    16:00 +15°C° 0 mm 4 m/s 754 mmHg 63%
    17:00 +14°C° 0 mm 4 m/s 754 mmHg 66%
    18:00 +13°C° 0 mm 3 m/s 754 mmHg 70%
    19:00 +12°C° 0 mm 3 m/s 754 mmHg 73%
    20:00 +12°C° 0 mm 3 m/s 754 mmHg 75%
    21:00 +11°C° 0 mm 3 m/s 755 mmHg 76%
    22:00 +11°C° 0 mm 3 m/s 755 mmHg 78%
    23:00 +11°C° 0 mm 3 m/s 755 mmHg 80%

    29 Abril, Segunda-feira

    Tempo Temperatura Precipitação Vento Pressão Humidade
    00:00 +10°C° 0 mm 3 m/s 755 mmHg 82%
    01:00 +10°C° 0 mm 3 m/s 754 mmHg 84%
    02:00 +10°C° 0 mm 4 m/s 754 mmHg 85%
    03:00 +10°C° 0 mm 4 m/s 754 mmHg 86%
    04:00 +10°C° 0 mm 4 m/s 754 mmHg 87%
    05:00 +10°C° 0.1 mm 4 m/s 754 mmHg 88%
    06:00 +10°C° 0.1 mm 5 m/s 754 mmHg 88%
    07:00 +10°C° 0.1 mm 5 m/s 754 mmHg 89%
    08:00 +10°C° 0.3 mm 5 m/s 754 mmHg 89%
    09:00 +12°C° 0.3 mm 4 m/s 753 mmHg 88%
    10:00 +12°C° 0.3 mm 4 m/s 753 mmHg 88%
    11:00 +13°C° 0.1 mm 4 m/s 753 mmHg 87%
    12:00 +14°C° 0.1 mm 4 m/s 753 mmHg 85%
    13:00 +17°C° 0.1 mm 3 m/s 753 mmHg 84%
    14:00 +18°C° 0.5 mm 4 m/s 752 mmHg 79%
    15:00 +19°C° 0.5 mm 4 m/s 752 mmHg 74%
    16:00 +20°C° 0.5 mm 4 m/s 752 mmHg 69%
    17:00 +19°C° 0.3 mm 3 m/s 752 mmHg 75%
    18:00 +17°C° 0.3 mm 3 m/s 752 mmHg 82%
    19:00 +16°C° 0.3 mm 3 m/s 752 mmHg 88%
    20:00 +14°C° 0 mm 3 m/s 752 mmHg 90%
    21:00 +13°C° 0 mm 3 m/s 753 mmHg 91%
    22:00 +12°C° 0 mm 3 m/s 753 mmHg 93%
    23:00 +11°C° 0 mm 3 m/s 753 mmHg 93%
    Mostrar mais